Flag for U.S.A. Weather past 2 weeks in Bloomington, Illinois, U.S.A.

Now
78 °F

Thundershowers. Scattered clouds.


Feels Like: 80 °F
Forecast: 65 / 82 °F
Wind: 7 mph from Southwest

Location: Bloomington / Normal

Current Time: Aug 30, 2014 at 8:08:05 PM

Latest Report: Aug 30, 2014 at 6:56 PM


Visibility: 10 mi

Pressure: 29.86 "Hg

Humidity: 77%

Dew point: 70 °F

Location of BloomingtonLocation

Historic Weather in Bloomington — Graph

°F

Bloomington temperature yesterday

Maximum temperature yesterday: 85 °F (at 1:56 PM)
Minimum temperature yesterday: 69 °F (at 12:56 AM)
Average temperature yesterday: 75 °F

Past Weeks' High & Low Weather Summary

 TemperatureHumidityPressure
High91 °F (Aug 25, 2:56 PM)100% (Aug 18, 2:56 AM)30.12 "Hg (Aug 18, 2:56 AM)
Low62 °F (Aug 28, 6:56 AM)56% (Aug 19, 4:56 PM)29.73 "Hg (Aug 19, 2:56 PM)
Average74 °F84%29.94 "Hg
* Reported Aug 15 6:56 PM — Aug 30 6:56 PM, Bloomington, Weather by CustomWeather, © 2014

Note: Actual official high and low records may vary slightly from our data, if they occured in-between our weather recording intervals... More about our weather records

Advertising

Bloomington weather history for previous 24 hours

 ConditionsComfort  
Time TempWeatherWind HumidityBarometerVisibility
6:56 PM
Aug 30
78 °FThundershowers. Scattered clouds.7 mph77%29.86 "Hg10 mi
5:56 PM79 °FScattered clouds.8 mph71%29.85 "Hg10 mi
4:56 PM78 °FScattered showers. Scattered clouds.9 mph77%29.85 "Hg10 mi
3:56 PM81 °FScattered showers. Partly sunny.9 mph71%29.85 "Hg10 mi
2:56 PM77 °FScattered showers. Broken clouds.9 mph82%29.88 "Hg7 mi
1:56 PM77 °FScattered showers. Mostly cloudy.10 mph87%29.88 "Hg7 mi
12:56 PM79 °FScattered showers. Partly sunny.16 mph76%29.89 "Hg10 mi
11:56 AM78 °FPartly sunny.15 mph74%29.90 "Hg10 mi
10:56 AM76 °FMostly cloudy.13 mph79%29.91 "Hg10 mi
9:56 AM75 °FScattered clouds.16 mph82%29.90 "Hg10 mi
9:02 AM73 °FScattered clouds.15 mph83%29.93 "Hg10 mi
8:56 AM72 °FScattered clouds.13 mph87%29.89 "Hg10 mi
7:56 AM71 °FSunny.13 mph91%29.89 "Hg10 mi
6:56 AM70 °FClear.10 mph90%29.88 "Hg10 mi
5:56 AM71 °FPassing clouds.14 mph91%29.87 "Hg10 mi
4:56 AM71 °FClear.13 mph91%29.86 "Hg10 mi
3:56 AM72 °FPassing clouds.14 mph87%29.86 "Hg10 mi
2:56 AM73 °FClear.12 mph85%29.86 "Hg10 mi
1:56 AM73 °FClear.14 mph85%29.86 "Hg10 mi
12:56 AM73 °FPassing clouds.13 mph85%29.86 "Hg10 mi
11:56 PM
Aug 29
73 °FPassing clouds.9 mph87%29.86 "Hg10 mi
10:56 PM72 °FClear.5 mph90%29.88 "Hg10 mi
9:56 PM76 °FPassing clouds.9 mph77%29.88 "Hg10 mi
8:56 PM76 °FClear.12 mph77%29.87 "Hg10 mi
Weather by CustomWeather, © 2014

See weather overviewHow to use our weather pages